Location: Aula-Vintri
(58.3875°N, 22.4322°E)
Time: 07:43:04
(UTC+00:00)

CSL-04 Rocket - Pass Details

Date: 13 October 2019
Orbit: 805 x 861 km, 99.0° (Epoch: 18 November)

Event Time Altitude Azimuth Distance (km) Brightness Sun altitude
Rises 16:04:19 0° 148° (SSE) 3,430 6.6 -5.1°
Reaches altitude 10° 16:06:42 10° 146° (SE) 2,494 5.9 -5.4°
Maximum altitude 16:12:11 66° 66° (ENE) 936 3.8 -6.1°
Drops below altitude 10° 16:17:39 10° 345° (NNW) 2,483 6.3 -6.8°
Sets 16:20:01 0° 343° (NNW) 3,415 7.0 -7.1°
